Total_Precipitation_Accumulation
0.79 0.67 0.78 0.79 0.65 0.72 1.06 1.00 0.93 0.67 0.63 0.72 0.71 0.73 0.70 0.64 0.57 0.50 0.49 0.47 0.43 0.45 0.46 0.49 0.52 0.59 0.73 0.86 0.92 1.04 1.19 1.23 1.21 1.19 1.17 1.15 1.15 1.12 1.14 1.19 1.27 1.34 1.33 1.26
0.82 0.52 0.54 0.59 0.50 0.57 0.69 0.65 0.64 0.54 0.63 0.59 0.57 0.60 0.63 0.58 0.50 0.44 0.45 0.44 0.39 0.37 0.38 0.40 0.44 0.49 0.59 0.76 0.87 0.94 1.06 1.14 1.16 1.14 1.13 1.13 1.10 1.08 1.04 1.08 1.16 1.26 1.31 1.33
0.98 0.53 0.62 0.71 0.58 0.58 0.65 0.62 0.60 0.68 0.66 0.48 0.47 0.56 0.67 0.62 0.50 0.46 0.45 0.44 0.41 0.40 0.39 0.38 0.39 0.48 0.58 0.70 0.78 0.83 0.89 0.97 1.03 1.04 1.07 1.08 1.08 1.12 1.16 1.18 1.21 1.29 1.37 1.41
1.14 0.85 1.02 0.75 0.50 0.48 0.56 0.61 0.56 0.58 0.50 0.45 0.50 0.55 0.59 0.61 0.56 0.49 0.42 0.40 0.41 0.43 0.40 0.38 0.39 0.45 0.57 0.70 0.81 0.87 0.93 0.96 0.95 0.99 1.05 1.09 1.16 1.25 1.34 1.39 1.41 1.46 1.52 1.54
1.23 0.94 0.61 0.39 0.30 0.43 0.56 0.63 0.53 0.47 0.39 0.35 0.37 0.45 0.50 0.48 0.50 0.51 0.45 0.43 0.45 0.48 0.47 0.45 0.46 0.48 0.56 0.71 0.82 0.89 0.97 1.02 1.02 1.08 1.17 1.22 1.33 1.42 1.45 1.53 1.52 1.48 1.46 1.45
1.29 1.04 0.58 0.39 0.21 0.24 0.44 0.65 0.40 0.35 0.36 0.33 0.33 0.46 0.50 0.46 0.49 0.51 0.48 0.46 0.49 0.50 0.48 0.51 0.55 0.57 0.66 0.81 0.91 0.99 1.07 1.16 1.16 1.18 1.25 1.28 1.31 1.31 1.30 1.31 1.28 1.22 1.18 1.14
1.04 0.99 0.54 0.36 0.17 0.17 0.52 0.67 0.40 0.39 0.41 0.38 0.44 0.52 0.48 0.43 0.46 0.50 0.53 0.56 0.58 0.59 0.62 0.68 0.73 0.77 0.88 1.01 1.14 1.19 1.20 1.26 1.24 1.18 1.18 1.17 1.13 1.07 1.02 1.00 0.97 0.93 0.90 0.86
0.74 1.04 0.71 0.36 0.25 0.46 0.65 0.44 0.38 0.36 0.37 0.38 0.37 0.34 0.34 0.35 0.39 0.43 0.47 0.53 0.60 0.66 0.71 0.74 0.83 0.92 1.03 1.17 1.24 1.18 1.13 1.11 1.05 0.95 0.91 0.86 0.84 0.87 0.85 0.82 0.86 0.86 0.83 0.79
0.71 0.79 0.65 0.50 0.52 0.54 0.47 0.42 0.37 0.37 0.35 0.34 0.35 0.35 0.34 0.34 0.35 0.38 0.39 0.43 0.48 0.57 0.63 0.67 0.74 0.78 0.86 0.91 0.89 0.87 0.87 0.87 0.85 0.81 0.77 0.76 0.75 0.78 0.83 0.81 0.82 0.82 0.81 0.83
0.62 0.60 0.51 0.47 0.42 0.39 0.36 0.39 0.36 0.34 0.32 0.30 0.35 0.33 0.32 0.32 0.33 0.35 0.37 0.39 0.41 0.43 0.49 0.56 0.61 0.64 0.66 0.66 0.65 0.69 0.76 0.80 0.81 0.80 0.78 0.77 0.77 0.76 0.81 0.85 0.86 0.83 0.82 0.84
0.54 0.44 0.39 0.36 0.33 0.35 0.33 0.29 0.29 0.28 0.27 0.29 0.30 0.30 0.31 0.32 0.34 0.36 0.37 0.38 0.40 0.46 0.52 0.59 0.60 0.63 0.66 0.68 0.68 0.72 0.77 0.82 0.86 0.86 0.83 0.81 0.80 0.81 0.83 0.87 0.95 1.05 1.02 0.96
0.61 0.45 0.47 0.43 0.34 0.31 0.30 0.30 0.32 0.32 0.31 0.31 0.32 0.36 0.35 0.37 0.39 0.40 0.41 0.40 0.41 0.44 0.50 0.58 0.59 0.61 0.66 0.71 0.74 0.77 0.79 0.81 0.84 0.87 0.87 0.85 0.80 0.82 0.86 0.87 0.91 0.93 0.95 0.98
0.51 0.37 0.35 0.33 0.27 0.26 0.30 0.33 0.35 0.35 0.35 0.36 0.36 0.38 0.40 0.43 0.45 0.45 0.44 0.44 0.47 0.49 0.52 0.56 0.58 0.61 0.67 0.70 0.74 0.78 0.83 0.84 0.85 0.86 0.87 0.87 0.82 0.79 0.84 0.88 0.90 0.89 0.89 0.91
0.30 0.29 0.31 0.28 0.31 0.30 0.32 0.34 0.34 0.34 0.36 0.37 0.39 0.40 0.41 0.43 0.43 0.44 0.50 0.54 0.53 0.50 0.49 0.50 0.50 0.56 0.63 0.65 0.68 0.73 0.77 0.82 0.85 0.84 0.88 0.91 0.90 0.86 0.81 0.82 0.84 0.83 0.83 0.90
0.25 0.29 0.36 0.34 0.31 0.31 0.31 0.30 0.30 0.32 0.32 0.34 0.36 0.40 0.42 0.45 0.47 0.50 0.52 0.51 0.47 0.45 0.45 0.44 0.45 0.51 0.56 0.59 0.63 0.68 0.74 0.80 0.83 0.84 0.87 0.92 0.94 0.96 0.91 0.85 0.83 0.81 0.80 0.86
0.29 0.28 0.30 0.32 0.33 0.32 0.31 0.31 0.33 0.35 0.35 0.36 0.38 0.42 0.45 0.46 0.46 0.47 0.49 0.47 0.46 0.47 0.47 0.45 0.47 0.50 0.51 0.54 0.57 0.61 0.70 0.84 0.90 0.89 0.90 0.93 0.93 0.94 0.94 0.90 0.86 0.81 0.79 0.86
0.43 0.40 0.37 0.38 0.37 0.37 0.38 0.41 0.42 0.43 0.41 0.40 0.42 0.42 0.41 0.39 0.38 0.40 0.43 0.43 0.44 0.46 0.45 0.46 0.49 0.47 0.46 0.49 0.55 0.60 0.65 0.74 0.83 0.81 0.83 0.88 0.92 0.94 0.96 0.95 0.90 0.83 0.82 0.90
0.51 0.53 0.51 0.50 0.48 0.46 0.44 0.43 0.42 0.42 0.43 0.43 0.41 0.39 0.39 0.38 0.40 0.41 0.42 0.39 0.37 0.37 0.41 0.46 0.47 0.43 0.41 0.45 0.51 0.56 0.60 0.65 0.71 0.76 0.79 0.86 0.95 0.95 0.94 0.94 0.90 0.86 0.83 0.87
0.47 0.49 0.49 0.50 0.50 0.48 0.48 0.48 0.47 0.45 0.44 0.42 0.40 0.41 0.41 0.42 0.43 0.44 0.41 0.38 0.37 0.40 0.43 0.44 0.47 0.42 0.42 0.46 0.52 0.55 0.59 0.62 0.65 0.69 0.75 0.84 0.87 0.84 0.86 0.88 0.88 0.86 0.84 0.85
0.46 0.47 0.47 0.48 0.47 0.46 0.48 0.48 0.45 0.44 0.43 0.41 0.41 0.41 0.42 0.43 0.42 0.41 0.38 0.39 0.45 0.49 0.45 0.45 0.44 0.42 0.44 0.47 0.55 0.57 0.57 0.61 0.65 0.68 0.72 0.77 0.80 0.80 0.79 0.81 0.81 0.82 0.82 0.84
0.47 0.46 0.46 0.47 0.49 0.47 0.47 0.45 0.43 0.45 0.45 0.42 0.43 0.44 0.44 0.44 0.40 0.38 0.36 0.37 0.40 0.40 0.40 0.41 0.39 0.40 0.47 0.59 0.64 0.59 0.57 0.61 0.66 0.71 0.74 0.76 0.77 0.76 0.75 0.75 0.76 0.77 0.79 0.80
0.46 0.46 0.48 0.47 0.44 0.45 0.45 0.44 0.44 0.44 0.44 0.45 0.44 0.43 0.42 0.41 0.38 0.35 0.36 0.40 0.42 0.43 0.43 0.39 0.41 0.52 0.68 0.75 0.66 0.59 0.60 0.63 0.67 0.71 0.74 0.75 0.76 0.74 0.71 0.72 0.74 0.73 0.73 0.74
0.42 0.43 0.44 0.46 0.45 0.44 0.43 0.43 0.44 0.43 0.43 0.44 0.46 0.46 0.45 0.43 0.40 0.40 0.43 0.41 0.40 0.44 0.44 0.44 0.53 0.67 0.75 0.69 0.58 0.57 0.60 0.63 0.65 0.66 0.69 0.70 0.70 0.70 0.70 0.68 0.67 0.68 0.69 0.69
0.34 0.34 0.36 0.36 0.34 0.31 0.34 0.36 0.37 0.37 0.39 0.40 0.42 0.42 0.42 0.40 0.38 0.38 0.42 0.44 0.44 0.46 0.44 0.48 0.57 0.64 0.64 0.56 0.51 0.53 0.55 0.57 0.58 0.59 0.60 0.60 0.60 0.61 0.62 0.63 0.63 0.61 0.61 0.62
0.26 0.26 0.25 0.24 0.25 0.27 0.29 0.29 0.28 0.29 0.29 0.32 0.34 0.34 0.35 0.38 0.42 0.41 0.39 0.39 0.40 0.41 0.41 0.43 0.47 0.48 0.47 0.45 0.47 0.48 0.50 0.54 0.59 0.62 0.60 0.58 0.57 0.57 0.56 0.56 0.57 0.57 0.56 0.57
0.22 0.21 0.21 0.22 0.23 0.23 0.23 0.23 0.24 0.25 0.27 0.29 0.31 0.33 0.34 0.37 0.38 0.39 0.39 0.38 0.37 0.38 0.39 0.39 0.39 0.39 0.40 0.41 0.42 0.43 0.45 0.47 0.49 0.51 0.50 0.52 0.52 0.53 0.53 0.52 0.51 0.52 0.54 0.54
0.20 0.19 0.19 0.18 0.18 0.20 0.21 0.22 0.24 0.26 0.28 0.32 0.35 0.34 0.35 0.36 0.37 0.37 0.36 0.35 0.35 0.36 0.36 0.36 0.37 0.38 0.38 0.39 0.39 0.39 0.40 0.42 0.44 0.46 0.46 0.48 0.50 0.51 0.51 0.51 0.51 0.52 0.53 0.52